Terminal Aerodrome Forecast
Issued by NWS

Home | Current Version | Previous Version | Text Only | Print | Product List | Glossary On
Versions: 1 2 3 4 5 6 7 8 9 10 11 12 13 14 15 16 17 18 19 20 21 22 23 24 25 26 27 28 29 30 31 32 33 34 35 36 37 38 39 40 41 42 43 44 45 46 47 48 49 50
285
FTAK31 PANC 300543
TAFACV
TAF
PACV 300543Z 3006/3106 25005KT P6SM VCSH SCT025 BKN050
     FM300800 29004KT 6SM BR SCT008 OVC015
     FM310400 VRB03KT 6SM BR SCT015 OVC050=

USA.gov is the U.S. government's official web portal to all federal, state and local government web resources and services.